,,Stat1,,Stat2,,Stat3,,Stat4,,Wind1,,Wind1,
time,status,PR1M_SUM,status,RH1M_AVG,status,SR1M_AVG,status,TA1M_AVG,status,W1dAve1m,status,W1sAve1m,
2000-03-10, 00:01:00,VALID,0,VALID,97.3566,VALID,-0.0339617,VALID,20.8237,VALID,275,VALID,0,
2000-03-10, 00:02:00,VALID,0,VALID,97.3477,VALID,-0.0169808,VALID,20.8573,VALID,275,VALID,0,
2000-03-10, 00:03:00,VALID,0,VALID,97.2777,VALID,0,VALID,20.8533,VALID,275,VALID,0,
2000-03-10, 00:04:00,VALID,0,VALID,97.2549,VALID,0,VALID,20.8724,VALID,269,VALID,0,
2000-03-10, 00:05:00,VALID,0,VALID,96.9827,VALID,-0.0169808,VALID,20.8633,VALID,256,VALID,0,
2000-03-10, 00:06:01,VALID,0,VALID,96.7577,VALID,-0.0169808,VALID,20.8178,VALID,246,VALID,0,
2000-03-10, 00:07:01,VALID,0,VALID,96.647,VALID,0,VALID,20.782,VALID,241,VALID,0.424959,
2000-03-10, 00:08:00,VALID,0,VALID,96.8136,VALID,-0.0339617,VALID,20.7559,VALID,250,VALID,0.421664,
2000-03-10, 00:09:00,VALID,0,VALID,96.7233,VALID,-0.0169808,VALID,20.7211,VALID,244,VALID,0.454564,
2000-03-10, 00:10:00,VALID,0,VALID,96.8123,VALID,-0.0169808,VALID,20.6945,VALID,232,VALID,0.216077,
2000-03-10, 00:11:00,VALID,0,VALID,97.0565,VALID,-0.0169808,VALID,20.7047,VALID,223,VALID,0.0499132,
2000-03-10, 00:12:00,VALID,0,VALID,97.2714,VALID,-0.0339617,VALID,20.734,VALID,252,VALID,0.0857319,
2000-03-10, 00:13:00,VALID,0,VALID,97.3451,VALID,-0.0339617,VALID,20.7303,VALID,268,VALID,0.0581055,
2000-03-10, 00:14:00,VALID,0,VALID,97.3591,VALID,-0.0169808,VALID,20.7373,VALID,268,VALID,0.146484,
2000-03-10, 00:15:00,VALID,0,VALID,97.4202,VALID,-0.0509425,VALID,20.7725,VALID,264,VALID,0.0616776,
2000-03-10, 00:16:00,VALID,0,VALID,97.307,VALID,-0.0169808,VALID,20.7623,VALID,263,VALID,0,
2000-03-10, 00:17:01,VALID,0,VALID,97.2638,VALID,-0.0339617,VALID,20.7688,VALID,263,VALID,0,
2000-03-10, 00:18:01,VALID,0,VALID,97.0616,VALID,0,VALID,20.7591,VALID,263,VALID,0,
2000-03-10, 00:19:00,VALID,0,VALID,96.4957,VALID,-0.0339617,VALID,20.7045,VALID,263,VALID,0,
2000-03-10, 00:20:00,VALID,0,VALID,96.558,VALID,-0.0339617,VALID,20.7007,VALID,263,VALID,0,
2000-03-10, 00:21:00,VALID,0,VALID,96.8925,VALID,-0.0339617,VALID,20.74,VALID,263,VALID,0,
2000-03-10, 00:22:00,VALID,0,VALID,97.1468,VALID,-0.0339617,VALID,20.7526,VALID,263,VALID,0,
2000-03-10, 00:23:00,VALID,0,VALID,97.349,VALID,-0.0509425,VALID,20.7917,VALID,263,VALID,0,
2000-03-10, 00:24:00,VALID,0,VALID,97.4596,VALID,-0.0339617,VALID,20.8342,VALID,263,VALID,0,
2000-03-10, 00:25:00,VALID,0,VALID,97.3477,VALID,-0.0509425,VALID,20.8339,VALID,263,VALID,0,
2000-03-10, 00:26:00,VALID,0,VALID,97.2205,VALID,-0.0509425,VALID,20.8436,VALID,263,VALID,0,
2000-03-10, 00:27:00,VALID,0,VALID,96.8683,VALID,-0.0169808,VALID,20.8431,VALID,263,VALID,0,
2000-03-10, 00:28:00,VALID,0,VALID,96.2948,VALID,-0.0169808,VALID,20.8234,VALID,260,VALID,0,
2000-03-10, 00:29:01,VALID,0,VALID,95.8523,VALID,-0.0679233,VALID,20.817,VALID,259,VALID,0,
2000-03-10, 00:30:00,VALID,0,VALID,95.7862,VALID,-0.0509425,VALID,20.8237,VALID,259,VALID,0,
2000-03-10, 00:31:00,VALID,0,VALID,96.1575,VALID,0,VALID,20.8496,VALID,259,VALID,0,
2000-03-10, 00:32:00,VALID,0,VALID,96.4766,VALID,0,VALID,20.8716,VALID,259,VALID,0,
2000-03-10, 00:33:00,VALID,0,VALID,96.7729,VALID,-0.0169808,VALID,20.9042,VALID,208,VALID,0.0751689,
2000-03-10, 00:34:00,VALID,0,VALID,96.703,VALID,-0.0169808,VALID,20.9012,VALID,143,VALID,0.046875,
2000-03-10, 00:35:00,VALID,0,VALID,96.6776,VALID,-0.0339617,VALID,20.9171,VALID,143,VALID,0,
2000-03-10, 00:36:00,VALID,0,VALID,96.661,VALID,-0.0169808,VALID,20.9435,VALID,143,VALID,0,
2000-03-10, 00:37:00,VALID,0,VALID,96.628,VALID,-0.0339617,VALID,20.9529,VALID,143,VALID,0,
2000-03-10, 00:38:00,VALID,0,VALID,96.6369,VALID,-0.0169808,VALID,20.9753,VALID,143,VALID,0,
2000-03-10, 00:39:00,VALID,0,VALID,96.249,VALID,-0.0509425,VALID,20.9621,VALID,143,VALID,0.0266047,
2000-03-10, 00:40:00,VALID,0,VALID,95.8294,VALID,0,VALID,20.9459,VALID,143,VALID,0,
2000-03-10, 00:41:00,VALID,0,VALID,96.0723,VALID,-0.0339617,VALID,20.9653,VALID,146,VALID,0,
2000-03-10, 00:42:00,VALID,0,VALID,96.3368,VALID,-0.0169808,VALID,20.975,VALID,163,VALID,0,
2000-03-10, 00:43:00,VALID,0,VALID,96.4906,VALID,0,VALID,20.9656,VALID,182,VALID,0.0437911,
2000-03-10, 00:44:00,VALID,0,VALID,96.717,VALID,0.0169808,VALID,20.9462,VALID,184,VALID,0.383681,
2000-03-10, 00:45:00,VALID,0,VALID,96.9789,VALID,-0.0169808,VALID,20.9529,VALID,181,VALID,0.272837,
2000-03-10, 00:46:00,VALID,0,VALID,97.2243,VALID,-0.0339617,VALID,20.9489,VALID,173,VALID,0.247533,
2000-03-10, 00:47:00,VALID,0,VALID,97.4545,VALID,0,VALID,20.9815,VALID,169,VALID,0.236225,
2000-03-10, 00:48:00,VALID,0,VALID,97.2752,VALID,-0.0169808,VALID,20.9914,VALID,136,VALID,0.459335,
2000-03-10, 00:49:00,VALID,0,VALID,96.9446,VALID,-0.0169808,VALID,20.9912,VALID,119,VALID,0.697917,
2000-03-10, 00:50:00,VALID,0,VALID,96.8009,VALID,0,VALID,20.978,VALID,112,VALID,0.724559,
2000-03-10, 00:51:00,VALID,0,VALID,96.9777,VALID,0,VALID,20.9715,VALID,111,VALID,0.633024,
2000-03-10, 00:52:00,VALID,0,VALID,96.82,VALID,0.0169808,VALID,20.9459,VALID,94,VALID,0.496962,
2000-03-10, 00:53:00,VALID,0,VALID,96.97,VALID,-0.0169808,VALID,20.9591,VALID,90,VALID,0.133235,
2000-03-10, 00:54:00,VALID,0,VALID,97.1252,VALID,-0.0339617,VALID,20.9688,VALID,90,VALID,0,
2000-03-10, 00:55:00,VALID,0,VALID,97.2078,VALID,-0.0169808,VALID,20.985,VALID,95,VALID,0.000205592,
2000-03-10, 00:56:00,VALID,0,VALID,97.1671,VALID,-0.0169808,VALID,20.9941,VALID,100,VALID,0.868454,
2000-03-10, 00:57:00,VALID,0,VALID,97.059,VALID,-0.0169808,VALID,20.9877,VALID,92,VALID,0.911801,
2000-03-10, 00:58:00,VALID,0,VALID,97.0565,VALID,0,VALID,20.9909,VALID,93,VALID,0.917763,
2000-03-10, 00:59:00,VALID,0,VALID,97.1086,VALID,-0.0679233,VALID,20.9879,VALID,88,VALID,0.842448,
2000-03-10, 01:00:00,VALID,0,VALID,97.1722,VALID,-0.0339617,VALID,20.9718,VALID,100,VALID,0.42722,
2000-03-10, 01:01:00,VALID,0,VALID,97.2587,VALID,-0.0169808,VALID,20.9718,VALID,89,VALID,0.115234,
2000-03-10, 01:02:00,VALID,0,VALID,97.3502,VALID,0,VALID,20.9842,VALID,74,VALID,0.0384115,
2000-03-10, 01:03:00,VALID,0,VALID,97.4176,VALID,-0.0509425,VALID,21.0103,VALID,97,VALID,0.354646,
2000-03-10, 01:04:00,VALID,0,VALID,97.382,VALID,-0.0339617,VALID,21.0394,VALID,85,VALID,0.613932,
2000-03-10, 01:05:00,VALID,0,VALID,97.2434,VALID,-0.0169808,VALID,21.0264,VALID,88,VALID,1.3822,
2000-03-10, 01:06:00,VALID,0,VALID,97.2561,VALID,-0.0169808,VALID,20.9941,VALID,89,VALID,1.10275,
2000-03-10, 01:07:00,VALID,0,VALID,97.3477,VALID,-0.0339617,VALID,20.9877,VALID,100,VALID,0.886308,
2000-03-10, 01:08:00,VALID,0,VALID,97.382,VALID,-0.0169808,VALID,21.0073,VALID,66,VALID,0.635135,
2000-03-10, 01:09:00,VALID,0,VALID,97.3146,VALID,-0.0169808,VALID,21.0135,VALID,97,VALID,0.370888,
2000-03-10, 01:10:00,VALID,0,VALID,97.2447,VALID,0,VALID,21.0299,VALID,93,VALID,0.266036,
2000-03-10, 01:11:01,VALID,0,VALID,97.1786,VALID,-0.0169808,VALID,21.0625,VALID,107,VALID,0.403783,
2000-03-10, 01:12:00,VALID,0,VALID,97.1035,VALID,0,VALID,21.0781,VALID,98,VALID,0.64403,
2000-03-10, 01:13:00,VALID,0,VALID,97.0005,VALID,-0.0679233,VALID,21.091,VALID,86,VALID,0.550446,
2000-03-10, 01:14:00,VALID,0,VALID,96.9192,VALID,-0.0339617,VALID,21.0978,VALID,89,VALID,0.406661,
2000-03-10, 01:15:00,VALID,0,VALID,96.8327,VALID,-0.0169808,VALID,21.0945,VALID,92,VALID,0.699958,
2000-03-10, 01:16:00,VALID,0,VALID,96.7869,VALID,-0.0169808,VALID,21.0908,VALID,79,VALID,0.815878,
2000-03-10, 01:17:00,VALID,0,VALID,96.736,VALID,-0.0339617,VALID,21.091,VALID,49,VALID,0.83826,
2000-03-10, 01:18:00,VALID,0,VALID,96.7805,VALID,-0.0169808,VALID,21.0816,VALID,93,VALID,0.744721,
2000-03-10, 01:19:00,VALID,0,VALID,96.7755,VALID,-0.0679233,VALID,21.0913,VALID,89,VALID,0.699519,
2000-03-10, 01:20:00,VALID,0,VALID,96.7704,VALID,-0.0509425,VALID,21.0978,VALID,85,VALID,0.475329,
2000-03-10, 01:21:00,VALID,0,VALID,96.7386,VALID,-0.0169808,VALID,21.0816,VALID,91,VALID,0.552787,
2000-03-10, 01:22:00,VALID,0,VALID,96.7717,VALID,-0.0339617,VALID,21.0848,VALID,100,VALID,0.420473,
2000-03-10, 01:23:00,VALID,0,VALID,96.7627,VALID,-0.0509425,VALID,21.0883,VALID,70,VALID,0.847991,
2000-03-10, 01:24:00,VALID,0,VALID,96.75,VALID,-0.0339617,VALID,21.0749,VALID,83,VALID,0.937706,
2000-03-10, 01:25:00,VALID,0,VALID,96.806,VALID,-0.0509425,VALID,21.0811,VALID,93,VALID,0.67732,
2000-03-10, 01:26:00,VALID,0,VALID,96.7627,VALID,0,VALID,21.0943,VALID,92,VALID,0.636285,
2000-03-10, 01:27:00,VALID,0,VALID,96.7132,VALID,-0.0169808,VALID,21.091,VALID,89,VALID,0.309122,
2000-03-10, 01:28:00,VALID,0,VALID,96.6725,VALID,-0.0169808,VALID,21.0975,VALID,89,VALID,0.493273,
2000-03-10, 01:29:00,VALID,0,VALID,96.6979,VALID,-0.0169808,VALID,21.1204,VALID,95,VALID,0.0989583,
2000-03-10, 01:30:00,VALID,0,VALID,96.6661,VALID,0,VALID,21.1169,VALID,96,VALID,0.070786,
2000-03-10, 01:31:00,VALID,0,VALID,96.6165,VALID,-0.0169808,VALID,21.1099,VALID,277,VALID,0.28639,
2000-03-10, 01:32:00,VALID,0,VALID,96.6165,VALID,0,VALID,21.1102,VALID,283,VALID,0.297526,
2000-03-10, 01:33:01,VALID,0,VALID,96.6267,VALID,-0.0339617,VALID,21.1002,VALID,311,VALID,0.426082,
2000-03-10, 01:34:00,VALID,0,VALID,96.6445,VALID,0,VALID,21.0814,VALID,311,VALID,0.190789,
2000-03-10, 01:35:00,VALID,0,VALID,96.7602,VALID,0.0169808,VALID,21.0485,VALID,311,VALID,0,
2000-03-10, 01:36:00,VALID,0,VALID,96.8874,VALID,-0.0169808,VALID,21.0421,VALID,311,VALID,0,
2000-03-10, 01:37:00,VALID,0,VALID,96.9408,VALID,0,VALID,21.0488,VALID,322,VALID,0,
2000-03-10, 01:38:00,VALID,0,VALID,96.9497,VALID,-0.0339617,VALID,21.0496,VALID,4,VALID,0,
2000-03-10, 01:39:00,VALID,0,VALID,96.8721,VALID,0,VALID,21.0329,VALID,4,VALID,0,
2000-03-10, 01:40:00,VALID,0,VALID,96.8708,VALID,0,VALID,21.0256,VALID,16,VALID,0,
2000-03-10, 01:41:00,VALID,0,VALID,96.7793,VALID,-0.0339617,VALID,21.0256,VALID,45,VALID,0,
2000-03-10, 01:42:00,VALID,0,VALID,96.6826,VALID,0,VALID,21.0329,VALID,153,VALID,0,
2000-03-10, 01:43:00,VALID,0,VALID,96.6165,VALID,-0.0339617,VALID,21.0267,VALID,154,VALID,0,
2000-03-10, 01:44:00,VALID,0,VALID,96.5936,VALID,-0.0509425,VALID,20.9976,VALID,167,VALID,0,
2000-03-10, 01:45:00,VALID,0,VALID,96.5835,VALID,-0.0509425,VALID,20.9317,VALID,200,VALID,0,
2000-03-10, 01:46:00,VALID,0,VALID,96.6407,VALID,0,VALID,20.9004,VALID,204,VALID,0,
2000-03-10, 01:47:00,VALID,0,VALID,96.5733,VALID,-0.0169808,VALID,20.8552,VALID,203,VALID,0,
2000-03-10, 01:48:00,VALID,0,VALID,96.6191,VALID,-0.0339617,VALID,20.8068,VALID,194,VALID,0,
2000-03-10, 01:49:00,VALID,0,VALID,96.5631,VALID,-0.0509425,VALID,20.7457,VALID,176,VALID,0,
2000-03-10, 01:50:00,VALID,0,VALID,96.5084,VALID,-0.0509425,VALID,20.6743,VALID,174,VALID,0,
2000-03-10, 01:51:00,VALID,0,VALID,96.4436,VALID,-0.0339617,VALID,20.6224,VALID,174,VALID,0,
2000-03-10, 01:52:00,VALID,0,VALID,96.2554,VALID,-0.0339617,VALID,20.5608,VALID,174,VALID,0,
2000-03-10, 01:53:00,VALID,0,VALID,96.5033,VALID,-0.0339617,VALID,20.5416,VALID,174,VALID,0,
2000-03-10, 01:54:00,VALID,0,VALID,96.7971,VALID,-0.0169808,VALID,20.5258,VALID,174,VALID,0,
2000-03-10, 01:55:00,VALID,0,VALID,97.0527,VALID,-0.0339617,VALID,20.526,VALID,146,VALID,0,
2000-03-10, 01:56:00,VALID,0,VALID,97.1976,VALID,0,VALID,20.5287,VALID,99,VALID,0,
2000-03-10, 01:57:00,VALID,0,VALID,97.3693,VALID,-0.0339617,VALID,20.5653,VALID,20,VALID,0,
2000-03-10, 01:58:00,VALID,0,VALID,97.4837,VALID,-0.0509425,VALID,20.578,VALID,312,VALID,0,
2000-03-10, 01:59:00,VALID,0,VALID,97.5804,VALID,-0.0679233,VALID,20.5909,VALID,312,VALID,0,
2000-03-10, 02:00:00,VALID,0,VALID,97.6783,VALID,-0.0679233,VALID,20.6038,VALID,308,VALID,0,
2000-03-10, 02:01:00,VALID,0,VALID,97.719,VALID,-0.0509425,VALID,20.6035,VALID,303,VALID,0,
2000-03-10, 02:02:00,VALID,0,VALID,97.7177,VALID,-0.0339617,VALID,20.6011,VALID,298,VALID,0,
2000-03-10, 02:03:00,VALID,0,VALID,97.6974,VALID,-0.0509425,VALID,20.6016,VALID,294,VALID,0,
2000-03-10, 02:04:00,VALID,0,VALID,97.6338,VALID,-0.0339617,VALID,20.565,VALID,275,VALID,0,
2000-03-10, 02:05:00,VALID,0,VALID,97.499,VALID,-0.0679233,VALID,20.5333,VALID,258,VALID,0,
2000-03-10, 02:06:01,VALID,0,VALID,97.4596,VALID,-0.0509425,VALID,20.4942,VALID,257,VALID,0,
2000-03-10, 02:07:00,VALID,0,VALID,97.4647,VALID,-0.0339617,VALID,20.452,VALID,257,VALID,0,
2000-03-10, 02:08:00,VALID,0,VALID,97.6262,VALID,-0.0509425,VALID,20.4455,VALID,257,VALID,0,
2000-03-10, 02:09:00,VALID,0,VALID,97.5092,VALID,0,VALID,20.4167,VALID,257,VALID,0,
2000-03-10, 02:10:00,VALID,0,VALID,97.2892,VALID,-0.0679233,VALID,20.3551,VALID,257,VALID,0,
2000-03-10, 02:11:00,VALID,0,VALID,96.9598,VALID,-0.0679233,VALID,20.2816,VALID,257,VALID,0,
2000-03-10, 02:12:00,VALID,0,VALID,97.0018,VALID,0,VALID,20.2458,VALID,257,VALID,0,
2000-03-10, 02:13:00,VALID,0,VALID,96.9319,VALID,-0.0339617,VALID,20.1973,VALID,257,VALID,0,
2000-03-10, 02:14:00,VALID,0,VALID,96.7933,VALID,-0.0169808,VALID,20.1655,VALID,230,VALID,0,
2000-03-10, 02:15:00,VALID,0,VALID,96.647,VALID,-0.0339617,VALID,20.1039,VALID,186,VALID,0,
2000-03-10, 02:16:00,VALID,0,VALID,96.6381,VALID,-0.0509425,VALID,20.0714,VALID,186,VALID,0,
2000-03-10, 02:17:01,VALID,0,VALID,96.8136,VALID,-0.0849042,VALID,20.0813,VALID,186,VALID,0,
2000-03-10, 02:18:00,VALID,0,VALID,97.2638,VALID,-0.0679233,VALID,20.1171,VALID,186,VALID,0,
2000-03-10, 02:19:00,VALID,0,VALID,97.4354,VALID,-0.0509425,VALID,20.1332,VALID,186,VALID,0,
2000-03-10, 02:20:00,VALID,0,VALID,97.5779,VALID,-0.0679233,VALID,20.1427,VALID,186,VALID,0,
2000-03-10, 02:21:00,VALID,0,VALID,97.7381,VALID,-0.0679233,VALID,20.1817,VALID,186,VALID,0,
2000-03-10, 02:22:00,VALID,0,VALID,97.6618,VALID,-0.0679233,VALID,20.1981,VALID,186,VALID,0,
2000-03-10, 02:23:00,VALID,0,VALID,97.5588,VALID,-0.0849042,VALID,20.1882,VALID,186,VALID,0,
2000-03-10, 02:24:00,VALID,0,VALID,97.2078,VALID,-0.0679233,VALID,20.1655,VALID,186,VALID,0,
2000-03-10, 02:25:00,VALID,0,VALID,96.7513,VALID,-0.0339617,VALID,20.13,VALID,186,VALID,0,
2000-03-10, 02:26:00,VALID,0,VALID,96.7132,VALID,-0.0509425,VALID,20.1295,VALID,186,VALID,0,
2000-03-10, 02:27:00,VALID,0,VALID,96.6585,VALID,-0.0169808,VALID,20.1494,VALID,186,VALID,0,
2000-03-10, 02:28:00,VALID,0,VALID,96.7144,VALID,-0.0339617,VALID,20.1655,VALID,186,VALID,0,
2000-03-10, 02:29:01,VALID,0,VALID,96.8556,VALID,-0.0509425,VALID,20.178,VALID,186,VALID,0,
2000-03-10, 02:30:00,VALID,0,VALID,96.8327,VALID,-0.0169808,VALID,20.2006,VALID,186,VALID,0,
2000-03-10, 02:31:00,VALID,0,VALID,96.9802,VALID,-0.0339617,VALID,20.2428,VALID,186,VALID,0,
2000-03-10, 02:32:00,VALID,0,VALID,97.3261,VALID,-0.0339617,VALID,20.298,VALID,247,VALID,0,
2000-03-10, 02:33:00,VALID,0,VALID,97.3032,VALID,-0.0339617,VALID,20.2848,VALID,292,VALID,0,
2000-03-10, 02:34:00,VALID,0,VALID,97.3947,VALID,-0.0509425,VALID,20.3109,VALID,292,VALID,0,
2000-03-10, 02:35:00,VALID,0,VALID,97.4532,VALID,-0.0509425,VALID,20.3265,VALID,292,VALID,0,
2000-03-10, 02:36:00,VALID,0,VALID,97.3909,VALID,-0.0169808,VALID,20.3464,VALID,292,VALID,0,
2000-03-10, 02:37:00,VALID,0,VALID,97.1658,VALID,-0.0339617,VALID,20.3499,VALID,292,VALID,0,
2000-03-10, 02:38:00,VALID,0,VALID,96.9942,VALID,-0.0679233,VALID,20.3332,VALID,292,VALID,0,
2000-03-10, 02:39:00,VALID,0,VALID,97.0489,VALID,0.0169808,VALID,20.3258,VALID,254,VALID,0,
2000-03-10, 02:40:01,VALID,0,VALID,97.1023,VALID,0.0509425,VALID,20.3419,VALID,241,VALID,0,
2000-03-10, 02:41:00,VALID,0,VALID,97.1595,VALID,0.0679233,VALID,20.3516,VALID,241,VALID,0,
2000-03-10, 02:42:00,VALID,0,VALID,97.2129,VALID,0.0849042,VALID,20.374,VALID,241,VALID,0,
2000-03-10, 02:43:00,VALID,0,VALID,97.0565,VALID,0.0679233,VALID,20.3705,VALID,225,VALID,0,
2000-03-10, 02:44:00,VALID,0,VALID,96.9942,VALID,0.0679233,VALID,20.3834,VALID,190,VALID,0,
2000-03-10, 02:45:00,VALID,0,VALID,96.7704,VALID,0.0169808,VALID,20.374,VALID,190,VALID,0,
2000-03-10, 02:46:00,VALID,0,VALID,96.6152,VALID,0.0679233,VALID,20.3473,VALID,190,VALID,0,
2000-03-10, 02:47:00,VALID,0,VALID,96.6661,VALID,0.0509425,VALID,20.3449,VALID,190,VALID,0,
2000-03-10, 02:48:00,VALID,0,VALID,96.8263,VALID,0.0679233,VALID,20.3546,VALID,190,VALID,0,
2000-03-10, 02:49:00,VALID,0,VALID,96.9077,VALID,0.0849042,VALID,20.3578,VALID,190,VALID,0,
2000-03-10, 02:50:00,VALID,0,VALID,96.9865,VALID,0.0509425,VALID,20.3548,VALID,190,VALID,0,
2000-03-10, 02:51:01,VALID,0,VALID,97.1213,VALID,0.0339617,VALID,20.3444,VALID,190,VALID,0,
2000-03-10, 02:52:00,VALID,0,VALID,97.1849,VALID,0.101885,VALID,20.3513,VALID,190,VALID,0,
2000-03-10, 02:53:00,VALID,0,VALID,96.9751,VALID,0.0849042,VALID,20.2964,VALID,190,VALID,0,
2000-03-10, 02:54:00,VALID,0,VALID,97.0222,VALID,0.0339617,VALID,20.2778,VALID,189,VALID,0,
2000-03-10, 02:55:00,VALID,0,VALID,97.2625,VALID,0,VALID,20.2716,VALID,189,VALID,0,
2000-03-10, 02:56:00,VALID,0,VALID,97.4291,VALID,0,VALID,20.2783,VALID,153,VALID,0,
2000-03-10, 02:57:00,VALID,0,VALID,97.5333,VALID,0,VALID,20.2716,VALID,110,VALID,0,
2000-03-10, 02:58:00,VALID,0,VALID,97.6618,VALID,0,VALID,20.2781,VALID,89,VALID,0,
2000-03-10, 02:59:00,VALID,0,VALID,97.8017,VALID,0,VALID,20.3039,VALID,89,VALID,0,
2000-03-10, 03:00:00,VALID,0,VALID,97.8296,VALID,0,VALID,20.294,VALID,89,VALID,0,
2000-03-10, 03:01:00,VALID,0,VALID,97.5918,VALID,0,VALID,20.2103,VALID,89,VALID,0,
2000-03-10, 03:02:01,VALID,0,VALID,97.4481,VALID,0,VALID,20.1459,VALID,89,VALID,0,
2000-03-10, 03:03:00,VALID,0,VALID,97.677,VALID,-0.0169808,VALID,20.1819,VALID,89,VALID,0,
2000-03-10, 03:04:00,VALID,0,VALID,97.8144,VALID,-0.0169808,VALID,20.1879,VALID,89,VALID,0,
2000-03-10, 03:05:00,VALID,0,VALID,97.9008,VALID,0,VALID,20.2043,VALID,89,VALID,0,
2000-03-10, 03:06:00,VALID,0,VALID,97.8017,VALID,0,VALID,20.1785,VALID,90,VALID,0,
2000-03-10, 03:07:00,VALID,0,VALID,97.2917,VALID,-0.0169808,VALID,20.0361,VALID,90,VALID,0,
2000-03-10, 03:08:00,VALID,0,VALID,97.2409,VALID,-0.0169808,VALID,19.9906,VALID,90,VALID,0,
2000-03-10, 03:09:00,VALID,0,VALID,97.2332,VALID,0,VALID,19.9656,VALID,90,VALID,0,
2000-03-10, 03:10:00,VALID,0,VALID,97.2765,VALID,-0.0169808,VALID,19.9419,VALID,94,VALID,0,
2000-03-10, 03:11:00,VALID,0,VALID,97.2421,VALID,0,VALID,19.9328,VALID,210,VALID,0,
2000-03-10, 03:12:00,VALID,0,VALID,97.3134,VALID,0.0169808,VALID,19.94,VALID,211,VALID,0,
2000-03-10, 03:13:01,VALID,0,VALID,97.4113,VALID,-0.0169808,VALID,19.9397,VALID,211,VALID,0,
2000-03-10, 03:14:00,VALID,0,VALID,97.4278,VALID,-0.0509425,VALID,19.9198,VALID,199,VALID,0,
2000-03-10, 03:15:00,VALID,0,VALID,97.6452,VALID,0,VALID,19.9367,VALID,185,VALID,0,
2000-03-10, 03:16:00,VALID,0,VALID,97.5944,VALID,0,VALID,19.9106,VALID,185,VALID,0,
2000-03-10, 03:17:00,VALID,0,VALID,97.6134,VALID,-0.0679233,VALID,19.8719,VALID,185,VALID,0,
2000-03-10, 03:18:00,VALID,0,VALID,97.5664,VALID,-0.0169808,VALID,19.8528,VALID,185,VALID,0,
2000-03-10, 03:19:00,VALID,0,VALID,97.3731,VALID,-0.0169808,VALID,19.8076,VALID,182,VALID,0,
2000-03-10, 03:20:00,VALID,0,VALID,97.279,VALID,-0.0339617,VALID,19.7589,VALID,171,VALID,0,
2000-03-10, 03:21:00,VALID,0,VALID,97.2803,VALID,-0.0509425,VALID,19.74,VALID,157,VALID,0,
2000-03-10, 03:22:00,VALID,0,VALID,97.5562,VALID,-0.0509425,VALID,19.743,VALID,156,VALID,0,
2000-03-10, 03:23:01,VALID,0,VALID,97.8207,VALID,-0.0339617,VALID,19.7755,VALID,146,VALID,0,
2000-03-10, 03:24:01,VALID,0,VALID,97.9606,VALID,-0.0509425,VALID,19.7755,VALID,144,VALID,0,
2000-03-10, 03:25:00,VALID,0,VALID,98.1552,VALID,0,VALID,19.8205,VALID,144,VALID,0,
2000-03-10, 03:26:00,VALID,0,VALID,98.2315,VALID,-0.0169808,VALID,19.8366,VALID,144,VALID,0,
2000-03-10, 03:27:00,VALID,0,VALID,98.0725,VALID,-0.0339617,VALID,19.7912,VALID,144,VALID,0,
2000-03-10, 03:28:00,VALID,0,VALID,98.0115,VALID,-0.0339617,VALID,19.7653,VALID,144,VALID,0,
2000-03-10, 03:29:00,VALID,0,VALID,97.9835,VALID,-0.0169808,VALID,19.7457,VALID,144,VALID,0,
2000-03-10, 03:30:00,VALID,0,VALID,98.0026,VALID,0,VALID,19.7462,VALID,144,VALID,0,
2000-03-10, 03:31:00,VALID,0,VALID,98.1704,VALID,0,VALID,19.7683,VALID,144,VALID,0,
2000-03-10, 03:32:00,VALID,0,VALID,98.2989,VALID,-0.0339617,VALID,19.8076,VALID,144,VALID,0,
2000-03-10, 03:33:01,VALID,0,VALID,98.4883,VALID,0,VALID,19.8632,VALID,144,VALID,0,
2000-03-10, 03:34:00,VALID,0,VALID,98.5735,VALID,-0.0679233,VALID,19.9012,VALID,144,VALID,0,
2000-03-10, 03:35:01,VALID,0,VALID,98.5583,VALID,-0.0339617,VALID,19.9139,VALID,144,VALID,0,
2000-03-10, 03:36:00,VALID,0,VALID,98.5748,VALID,-0.0169808,VALID,19.927,VALID,145,VALID,0,
2000-03-10, 03:37:00,VALID,0,VALID,98.5112,VALID,0,VALID,19.8945,VALID,148,VALID,0,
2000-03-10, 03:38:00,VALID,0,VALID,98.5455,VALID,-0.0169808,VALID,19.8915,VALID,148,VALID,0,
2000-03-10, 03:39:00,VALID,0,VALID,98.6002,VALID,0,VALID,19.9104,VALID,148,VALID,0,
2000-03-10, 03:40:00,VALID,0,VALID,98.5061,VALID,-0.0169808,VALID,19.8913,VALID,148,VALID,0,
2000-03-10, 03:41:00,VALID,0,VALID,98.4667,VALID,-0.101885,VALID,19.8595,VALID,148,VALID,0,
2000-03-10, 03:42:00,VALID,0,VALID,98.4883,VALID,0,VALID,19.8525,VALID,149,VALID,0,
2000-03-10, 03:43:00,VALID,0,VALID,98.4654,VALID,-0.0849042,VALID,19.8366,VALID,149,VALID,0,
2000-03-10, 03:44:00,VALID,0,VALID,98.4985,VALID,-0.0679233,VALID,19.8334,VALID,149,VALID,0,
2000-03-10, 03:45:00,VALID,0,VALID,98.5481,VALID,-0.101885,VALID,19.8562,VALID,149,VALID,0,
2000-03-10, 03:46:00,VALID,0,VALID,98.5862,VALID,-0.0849042,VALID,19.8721,VALID,149,VALID,0,
2000-03-10, 03:47:00,VALID,0,VALID,98.5621,VALID,-0.0679233,VALID,19.8751,VALID,149,VALID,0,
2000-03-10, 03:48:00,VALID,0,VALID,98.5519,VALID,-0.0679233,VALID,19.8687,VALID,149,VALID,0,
2000-03-10, 03:49:00,VALID,0,VALID,98.515,VALID,-0.0509425,VALID,19.8659,VALID,149,VALID,0,
2000-03-10, 03:50:00,VALID,0,VALID,98.4286,VALID,-0.0679233,VALID,19.8528,VALID,149,VALID,0,
2000-03-10, 03:51:00,VALID,0,VALID,98.3497,VALID,-0.0509425,VALID,19.85,VALID,149,VALID,0,
2000-03-10, 03:52:00,VALID,0,VALID,98.2836,VALID,-0.0509425,VALID,19.8498,VALID,149,VALID,0,
2000-03-10, 03:53:00,VALID,0,VALID,98.2861,VALID,-0.0339617,VALID,19.862,VALID,149,VALID,0,
2000-03-10, 03:54:00,VALID,0,VALID,98.3459,VALID,-0.0509425,VALID,19.9042,VALID,149,VALID,0,
2000-03-10, 03:55:00,VALID,0,VALID,98.5621,VALID,-0.0339617,VALID,19.9658,VALID,159,VALID,0,
2000-03-10, 03:56:01,VALID,0,VALID,98.6028,VALID,0,VALID,20.0431,VALID,171,VALID,0,
2000-03-10, 03:57:00,VALID,0,VALID,98.4934,VALID,-0.0169808,VALID,20.056,VALID,240,VALID,0,
2000-03-10, 03:58:00,VALID,0,VALID,98.4629,VALID,-0.0339617,VALID,20.0853,VALID,278,VALID,0.161595,
2000-03-10, 03:59:00,VALID,0,VALID,98.4807,VALID,-0.0339617,VALID,20.1171,VALID,275,VALID,0.684005,
2000-03-10, 04:00:00,VALID,0,VALID,98.4298,VALID,-0.0849042,VALID,20.1308,VALID,253,VALID,0.774439,
2000-03-10, 04:01:00,VALID,0,VALID,98.379,VALID,-0.0509425,VALID,20.1238,VALID,247,VALID,0.902561,
2000-03-10, 04:02:00,VALID,0,VALID,98.2912,VALID,-0.0509425,VALID,20.1241,VALID,247,VALID,0.852764,
2000-03-10, 04:03:00,VALID,0,VALID,98.2658,VALID,-0.0339617,VALID,20.098,VALID,245,VALID,0.732264,
2000-03-10, 04:04:00,VALID,0,VALID,98.2823,VALID,-0.0169808,VALID,20.098,VALID,230,VALID,0.732422,
2000-03-10, 04:05:00,VALID,0,VALID,98.2785,VALID,-0.0509425,VALID,20.0918,VALID,241,VALID,0.690667,
2000-03-10, 04:06:01,VALID,0,VALID,98.2493,VALID,-0.0509425,VALID,20.0856,VALID,241,VALID,0.698057,
2000-03-10, 04:07:00,VALID,0,VALID,98.2696,VALID,-0.0679233,VALID,20.0791,VALID,224,VALID,0.540296,
2000-03-10, 04:08:00,VALID,0,VALID,98.281,VALID,-0.0339617,VALID,20.0823,VALID,216,VALID,0.765836,
2000-03-10, 04:09:00,VALID,0,VALID,98.2823,VALID,-0.0849042,VALID,20.0759,VALID,210,VALID,0.808388,
2000-03-10, 04:10:00,VALID,0,VALID,98.3306,VALID,-0.0679233,VALID,20.0684,VALID,190,VALID,0.778166,
2000-03-10, 04:11:00,VALID,0,VALID,98.3256,VALID,-0.0339617,VALID,20.0595,VALID,190,VALID,0.599392,
2000-03-10, 04:12:00,VALID,0,VALID,98.3459,VALID,-0.0509425,VALID,20.0369,VALID,174,VALID,0.58491,
2000-03-10, 04:13:00,VALID,0,VALID,98.3777,VALID,-0.0509425,VALID,20.0237,VALID,147,VALID,0.56665,